This is the latest recevied weather packets stored in our database for station/object W4TJP. If no packets are shown the sender has not sent any weather packets the latest 10 day(s).
| Time | Temp. | Humidity | Pressure | Rain* | Wind** | Luminosity | Snow |
|---|---|---|---|---|---|---|---|
| 1777769802 | 7.78° C | 94% | 1017.4 hPa | 1.78 mm | - | 0 W/m² | - |
| 1777769499 | 8.33° C | 93% | 1017.3 hPa | 3.05 mm | - | 0 W/m² | - |
| 1777769196 | 8.33° C | 92% | 1017.3 hPa | 3.05 mm | - | 0 W/m² | - |
| 1777768894 | 8.33° C | 90% | 1017.2 hPa | 1.78 mm | - | 0 W/m² | - |
| 1777768591 | 8.89° C | 89% | 1017.2 hPa | 0 mm | - | 0 W/m² | - |
| 1777768288 | 8.89° C | 86% | 1016.7 hPa | 0 mm | - | 0 W/m² | - |
| 1777767985 | 8.89° C | 84% | 1016.6 hPa | 0 mm | - | 0 W/m² | - |
| 1777767681 | 9.44° C | 80% | 1016.3 hPa | 0 mm | - | 0 W/m² | - |
| 1777767378 | 9.44° C | 79% | 1016 hPa | 0 mm | - | 0 W/m² | - |
| 1777767075 | 9.44° C | 79% | 1016.1 hPa | 0 mm | - | 1 W/m² | - |
| 1777766772 | 9.44° C | 78% | 1015.9 hPa | 0 mm | - | 3 W/m² | - |
| 1777766469 | 9.44° C | 78% | 1015.6 hPa | 0 mm | - | 5 W/m² | - |
| 1777766166 | 10° C | 77% | 1015.6 hPa | 0 mm | - | 6 W/m² | - |
| 1777765864 | 10° C | 76% | 1015.6 hPa | 0 mm | - | 8 W/m² | - |
| 1777765559 | 10.56° C | 74% | 1015.7 hPa | 0 mm | - | 10 W/m² | - |
| 1777765257 | 10.56° C | 72% | 1015.7 hPa | 0 mm | - | 14 W/m² | - |
| 1777764957 | 11.11° C | 69% | 1015.6 hPa | 0 mm | - | 25 W/m² | - |
| 1777764655 | 11.67° C | 66% | 1015.6 hPa | 0 mm | - | 29 W/m² | - |
| 1777764351 | 12.22° C | 62% | 1015.4 hPa | 0 mm | - | 35 W/m² | - |
| 1777764048 | 12.22° C | 62% | 1015.7 hPa | 0 mm | - | 40 W/m² | - |
| 1777763745 | 12.22° C | 60% | 1015.5 hPa | 0 mm | - | 41 W/m² | - |
| 1777763443 | 12.22° C | 63% | 1015.3 hPa | 0 mm | - | 43 W/m² | - |
| 1777763141 | 12.22° C | 62% | 1015.6 hPa | 0 mm | - | 39 W/m² | - |
| 1777762839 | 12.22° C | 61% | 1015.5 hPa | 0 mm | - | 45 W/m² | - |
| 1777762534 | 12.22° C | 63% | 1015.5 hPa | 0 mm | - | 43 W/m² | - |
* Rain latest hour (hover to see other rain measurements)
** Current wind speed in m/s (hover to see current wind gust speed)